sat.trackr.live / text

‹ back to catalog

UMBRA-12

NORAD 67371 · 2026-004J

PAYLOAD ACTIVE UNKNOWN

§ Identity

Operator
Country
US
Launch date
2026-01-11
Launch site
AFWTR
Launch vehicle
Mass (kg)
RCS (m²)

External: N2YO · Heavens-Above · Gunter

§ Orbital elements

Epoch: 2026-05-24T23:50:40.538400Z

Period
96.70 min
Inclination
97.8013°
Eccentricity
0.0005387
Mean motion
14.89098815 rev/d
Perigee alt
597.0 km
Apogee alt
604.5 km
Semi-major
6,978.9 km
B*
4.0634e-4
RAAN
144.0898°
Arg perigee
191.4691°
Mean anomaly
168.6404°
Rev number
1,985

§ Raw data

UMBRA-121 67371U 26004J   26144.99352475  .00003778  00000+0  40634-3 0  99912 67371  97.8013 144.0898 0005387 191.4691 168.6404 14.89098815 19857

JSON: /api/v1/satellites/67371 · /tle

For live sub-satellite position, see the globe view (requires WebGL).

§ Visibility from observer

Set your observer location to see the next 7 days of passes ≥ 10°. The values pass through the URL so the page stays shareable.

No JS? Fill the form by hand. The geolocation button needs JavaScript.